Location: Bailleul
(50.3375°N, 2.8513°E)
Time: 04:25:52
(UTC+00:00)

Cosmos 1980 - Pass Details

Date: 31 October 2021
Orbit: 839 x 847 km, 71.0° (Epoch: 01 December)

Event Time Altitude Azimuth Distance (km) Brightness Sun altitude
Exits shadow 05:09:46 10° 320° (NW) 2,513 5.8 -14.4°
Reaches altitude 10° 05:09:53 10° 320° (NW) 2,472 5.7 -14.4°
Maximum altitude 05:15:11 42° 251° (WSW) 1,185 4.1 -13.6°
Drops below altitude 10° 05:20:28 10° 182° (S) 2,462 6.2 -12.7°
Sets 05:23:00 0° 176° (S) 3,393 7.0 -12.3°
